Location: Cruquius
(52.3348°N, 4.6319°E)
Time: 12:42:36
(UTC+00:00)

Spot 4 - Pass Details

Date: 12 May 2021
Orbit: 703 x 724 km, 98.3° (Epoch: 19 June)

Event Time Altitude Azimuth Distance (km) Brightness Sun altitude
Exits shadow 22:42:01 35° 175° (S) 1,162 4.4 -18.3°
Maximum altitude 22:44:06 77° 256° (WSW) 748 3.9 -18.3°
Drops below altitude 10° 22:48:59 10° 343° (NNW) 2,223 7.7 -18.5°
Sets 22:51:16 0° 345° (NNW) 3,146 8.9 -18.6°
